Temp
73 80 82 84 84 84 84 84 84 84 84 84 84 84 84 83 84 83 84 83 83 84 84 84 85 84 84 84 84 84 84 84 84 84 84 84 84 84 84 84 86 90 83
75 81 80 83 84 84 84 84 83 84 84 84 84 84 84 84 84 84 83 84 84 84 84 84 84 84 84 84 84 84 83 84 84 85 85 84 84 85 84 85 85 86 83
77 83 87 82 83 83 83 83 83 84 84 84 84 84 84 84 84 84 84 85 85 85 85 85 85 84 84 84 84 84 84 84 84 83 86 89 90 85 84 84 84 83 83
86 88 91 81 83 83 84 84 84 84 84 84 84 84 84 85 84 84 85 85 85 84 85 85 85 84 84 84 84 84 83 83 84 85 85 91 93 84 84 84 84 83 83
91 91 88 82 83 84 84 84 84 84 84 84 84 84 84 85 85 85 85 85 85 85 85 85 85 85 84 84 84 84 84 83 84 86 94 84 90 86 84 84 84 83 84
92 92 85 83 84 84 84 84 84 84 84 84 84 85 84 85 85 85 85 84 85 85 85 85 85 85 85 84 84 84 84 84 84 92 92 78 87 84 84 86 84 83 83
94 91 91 84 84 84 84 84 84 84 84 84 84 85 85 85 85 85 85 85 85 85 85 85 85 85 84 84 84 84 84 85 90 91 87 91 89 84 84 83 83 83 82
93 91 90 84 84 84 85 84 84 83 84 84 84 85 85 85 85 85 85 85 85 85 85 85 85 84 84 84 84 84 84 84 89 89 90 82 83 84 84 83 83 83 83
97 93 91 91 86 83 83 83 84 84 84 84 85 85 85 85 84 85 85 85 85 85 85 85 84 84 84 84 84 84 84 84 89 82 85 87 81 82 83 83 82 82 83
96 91 92 97 93 92 91 84 84 84 84 84 84 84 85 85 85 85 84 85 85 85 85 85 85 84 84 84 84 84 84 84 82 89 91 84 79 81 82 82 82 82 82
94 95 93 96 96 88 88 87 85 84 84 84 85 84 86 87 87 89 86 85 85 85 85 85 85 85 84 84 84 84 84 89 78 84 87 80 80 80 79 79 81 81 82
96 98 96 95 98 97 90 88 88 91 92 90 91 88 91 90 92 93 89 85 85 85 85 85 85 85 85 93 88 85 90 85 92 89 82 79 79 79 78 78 77 79 82
98 98 97 98 97 97 90 90 93 93 86 95 92 93 93 94 87 83 91 87 89 84 86 85 85 86 86 84 84 91 86 91 78 83 80 79 78 78 77 78 78 78 78
98 97 98 99 96 97 97 95 91 89 97 91 94 91 92 89 89 93 85 82 84 87 88 86 82 80 86 85 82 87 93 88 76 80 78 79 79 77 77 77 78 79 79
98 98 99 97 93 94 93 96 96 98 97 96 96 93 90 85 90 84 93 93 92 86 89 91 89 88 83 81 83 80 88 86 77 75 78 81 79 79 78 77 77 77 79
99 98 100 97 93 95 93 93 95 96 98 94 89 89 93 88 89 82 94 93 89 87 88 85 82 79 80 83 84 82 85 83 87 85 88 86 80 80 79 77 78 78 79
100 100 99 97 96 93 92 91 93 97 99 98 91 96 93 93 88 89 89 93 87 83 80 77 80 81 77 79 77 82 81 84 89 81 81 80 82 80 80 79 78 78 80
100 97 98 100 99 95 94 92 96 98 97 88 94 88 94 93 92 91 83 94 90 90 81 81 82 77 81 82 84 82 80 87 88 86 88 88 85 86 81 80 79 79 79
100 97 96 97 97 95 93 94 96 96 96 92 97 88 91 95 94 91 87 87 91 87 84 85 81 84 84 84 88 90 88 84 92 89 85 85 89 88 86 81 80 80 80
99 97 95 96 95 94 94 93 96 97 97 97 97 94 95 87 94 92 86 92 92 92 86 85 81 82 81 82 86 87 87 88 91 79 83 85 88 89 82 82 83 82 80
99 96 94 94 93 93 93 92 93 93 96 96 98 96 94 94 93 90 91 93 92 91 87 88 86 86 84 91 79 86 85 90 87 91 87 88 84 84 86 87 80 83 82
98 96 93 93 92 92 94 94 96 96 98 98 98 96 95 93 93 91 90 92 90 88 84 86 84 82 80 84 80 80 77 76 86 90 91 90 89 81 92 88 91 86 85
98 96 94 92 92 91 93 95 94 94 93 95 94 95 95 93 93 92 91 90 91 90 83 85 87 84 82 80 86 79 77 75 80 88 87 82 91 85 87 85 89 89 88
100 99 97 94 92 92 92 94 91 91 91 95 95 97 96 93 93 93 91 92 90 93 89 84 85 86 85 84 91 93 89 87 74 74 86 86 91 89 92 86 85 86 85
102 101 99 95 92 93 91 91 93 89 95 97 97 90 91 92 92 93 91 91 91 92 89 89 88 88 91 87 92 92 89 93 91 82 75 81 88 85 84 87 83 80 85
103 102 100 95 92 91 92 90 90 91 90 94 94 93 96 97 93 91 93 90 91 92 90 91 89 89 87 87 88 90 92 89 90 89 81 80 77 85 86 84 82 84 86
MSLP
1015.97 1015.60 1015.45 1015.25 1015.12 1015.38 1015.50 1015.75 1015.89 1016.11 1016.15 1016.25 1016.40 1016.47 1016.49 1016.64 1016.74 1016.85 1017.00 1017.22 1017.32 1017.32 1017.42 1017.51 1017.61 1017.70 1017.81 1017.74 1017.69 1017.77 1017.83 1017.96 1018.04 1018.06 1018.17 1018.31 1018.47 1018.55 1018.59 1018.63 1018.12 1018.50 1019.15
1016.01 1015.63 1015.68 1015.46 1015.56 1015.68 1015.80 1016.06 1016.09 1016.32 1016.54 1016.59 1016.70 1016.77 1016.87 1016.92 1017.09 1017.19 1017.42 1017.36 1017.42 1017.51 1017.68 1017.86 1018.03 1018.07 1017.99 1018.00 1018.06 1018.25 1018.32 1018.23 1018.22 1018.23 1018.26 1018.51 1018.80 1018.90 1018.98 1018.86 1018.58 1019.17 1019.45
1015.89 1015.68 1015.54 1015.92 1015.97 1016.12 1016.23 1016.25 1016.50 1016.72 1016.77 1016.89 1016.98 1017.04 1017.09 1017.27 1017.42 1017.56 1017.58 1017.55 1017.68 1017.70 1017.90 1018.05 1018.22 1018.35 1018.34 1018.42 1018.49 1018.52 1018.59 1018.47 1018.32 1018.34 1017.99 1017.78 1018.67 1019.29 1019.43 1019.36 1019.49 1019.67 1019.78
1015.16 1015.17 1015.46 1016.35 1016.21 1016.26 1016.51 1016.64 1016.82 1016.89 1017.05 1017.15 1017.27 1017.30 1017.56 1017.51 1017.75 1017.88 1017.90 1017.91 1018.06 1018.16 1018.25 1018.30 1018.51 1018.62 1018.57 1018.62 1018.64 1018.72 1018.81 1018.62 1018.45 1018.44 1018.14 1017.52 1018.14 1019.66 1019.79 1019.82 1019.90 1020.12 1020.19
1014.32 1015.14 1016.03 1016.46 1016.31 1016.54 1016.81 1017.02 1017.13 1017.19 1017.28 1017.36 1017.47 1017.64 1017.81 1017.77 1017.93 1018.15 1018.21 1018.25 1018.41 1018.42 1018.57 1018.69 1018.77 1018.83 1018.85 1018.89 1018.94 1018.99 1018.99 1018.76 1018.39 1018.12 1017.26 1018.08 1017.90 1019.62 1019.96 1020.02 1020.13 1020.21 1020.21
1013.77 1014.77 1016.30 1016.56 1016.48 1016.84 1017.06 1017.26 1017.46 1017.53 1017.54 1017.63 1017.75 1017.87 1018.06 1018.00 1018.14 1018.39 1018.46 1018.55 1018.65 1018.74 1018.87 1018.99 1019.04 1019.10 1019.08 1019.08 1019.11 1019.18 1019.18 1018.89 1018.61 1017.77 1017.64 1019.01 1018.74 1019.66 1020.13 1020.14 1020.42 1020.42 1020.54
1013.85 1015.10 1016.05 1016.63 1016.93 1017.20 1017.22 1017.63 1017.77 1017.76 1017.80 1017.88 1018.02 1018.10 1018.23 1018.21 1018.42 1018.58 1018.59 1018.67 1018.70 1018.90 1019.04 1019.19 1019.21 1019.29 1019.25 1019.27 1019.27 1019.28 1019.21 1019.02 1018.50 1018.15 1018.38 1018.53 1019.35 1019.96 1020.36 1020.63 1020.64 1020.85 1020.91
1014.27 1015.14 1016.12 1016.92 1017.25 1017.43 1017.48 1017.85 1017.95 1018.15 1018.09 1018.14 1018.26 1018.33 1018.43 1018.51 1018.58 1018.75 1018.84 1018.82 1018.90 1019.07 1019.21 1019.32 1019.36 1019.42 1019.43 1019.43 1019.41 1019.38 1019.29 1019.12 1018.66 1018.63 1018.66 1019.46 1019.96 1020.35 1020.65 1020.84 1020.92 1021.02 1021.11
1014.25 1015.01 1015.76 1016.51 1017.17 1017.54 1017.80 1018.01 1018.09 1018.26 1018.34 1018.34 1018.48 1018.56 1018.62 1018.65 1018.65 1018.82 1018.87 1018.91 1019.03 1019.14 1019.27 1019.37 1019.45 1019.49 1019.50 1019.47 1019.51 1019.50 1019.34 1019.12 1018.83 1019.27 1019.44 1019.63 1020.36 1020.66 1020.92 1021.03 1021.05 1021.24 1021.27
1014.35 1015.47 1015.32 1015.35 1016.30 1016.84 1017.45 1018.03 1018.21 1018.35 1018.58 1018.52 1018.70 1018.72 1018.71 1018.59 1018.66 1018.65 1018.69 1018.74 1018.90 1019.03 1019.14 1019.24 1019.33 1019.44 1019.46 1019.44 1019.48 1019.52 1019.28 1019.08 1019.04 1018.71 1019.18 1020.16 1020.40 1020.91 1021.08 1021.26 1021.36 1021.33 1021.42
1014.05 1014.59 1015.17 1015.08 1015.41 1016.56 1017.14 1017.81 1018.28 1018.45 1018.56 1018.60 1018.61 1018.67 1018.47 1018.01 1018.21 1018.13 1018.30 1018.47 1018.68 1018.81 1018.92 1019.00 1019.09 1019.15 1019.11 1019.15 1019.25 1019.16 1019.08 1018.63 1019.34 1018.90 1019.40 1020.36 1020.75 1021.01 1021.32 1021.55 1021.53 1021.63 1021.70
1012.90 1013.38 1014.29 1014.81 1014.86 1015.44 1016.59 1017.40 1017.68 1017.60 1017.60 1017.68 1017.52 1017.98 1017.53 1017.39 1017.36 1017.51 1017.94 1018.34 1018.43 1018.60 1018.63 1018.67 1018.82 1018.83 1018.71 1017.68 1018.71 1018.81 1018.49 1018.53 1018.18 1018.44 1019.49 1020.16 1021.02 1021.26 1021.45 1021.69 1021.91 1021.97 1021.76
1012.49 1013.19 1014.15 1014.31 1014.77 1015.33 1015.77 1016.64 1016.68 1016.80 1016.91 1016.65 1017.24 1017.18 1016.86 1016.85 1017.52 1017.82 1017.55 1017.58 1017.64 1017.98 1018.13 1018.38 1018.45 1018.27 1018.16 1018.00 1018.12 1017.59 1018.08 1017.78 1018.55 1018.66 1019.90 1020.21 1020.82 1021.19 1021.56 1021.60 1021.82 1022.01 1022.08
1012.30 1013.14 1014.02 1014.23 1014.70 1014.98 1015.41 1015.84 1015.84 1016.04 1015.87 1016.36 1016.63 1017.41 1017.04 1017.21 1017.07 1016.90 1017.21 1017.45 1017.25 1017.21 1017.27 1017.87 1018.25 1018.26 1018.12 1018.13 1018.12 1018.03 1017.68 1017.64 1018.54 1018.99 1019.93 1020.16 1020.61 1020.91 1021.36 1021.62 1021.67 1021.89 1022.06
1012.24 1012.91 1013.47 1014.23 1015.34 1015.28 1015.63 1015.46 1015.54 1015.58 1016.01 1015.83 1016.45 1016.89 1016.99 1017.34 1016.84 1017.22 1016.92 1016.70 1016.60 1016.83 1017.19 1017.47 1017.84 1017.84 1018.41 1018.52 1018.41 1018.46 1018.06 1018.17 1019.01 1019.55 1019.82 1020.00 1020.27 1020.53 1020.99 1021.17 1021.53 1021.80 1021.99
1011.90 1012.57 1013.10 1014.11 1015.37 1015.46 1015.85 1015.94 1015.94 1015.95 1015.66 1015.95 1016.28 1016.66 1016.94 1016.90 1016.76 1017.34 1016.62 1016.27 1016.60 1017.10 1017.58 1017.93 1018.25 1018.59 1018.56 1018.60 1018.34 1018.40 1018.32 1018.63 1018.64 1019.00 1018.78 1019.44 1019.99 1020.22 1020.59 1020.98 1021.08 1021.46 1021.72
1011.78 1012.54 1013.15 1014.09 1014.88 1015.61 1015.98 1016.42 1016.26 1015.64 1015.47 1015.44 1016.07 1016.26 1016.76 1016.69 1016.75 1016.96 1016.79 1016.21 1016.27 1017.12 1017.99 1018.39 1018.27 1018.38 1018.80 1018.57 1018.46 1018.36 1018.45 1018.40 1018.05 1018.76 1018.92 1019.14 1019.61 1020.00 1020.27 1020.69 1020.84 1020.89 1021.35
1011.68 1012.55 1013.30 1013.84 1014.37 1015.34 1015.65 1016.10 1015.60 1015.16 1015.20 1015.87 1015.92 1016.23 1016.46 1016.72 1016.90 1016.79 1016.84 1016.15 1016.68 1016.97 1017.59 1017.80 1017.98 1018.36 1018.51 1018.27 1018.09 1017.92 1018.10 1017.52 1017.86 1017.99 1018.15 1018.52 1018.84 1019.39 1020.16 1020.40 1020.75 1020.89 1020.98
1011.65 1012.70 1013.39 1013.94 1014.20 1014.91 1015.43 1015.62 1015.40 1015.26 1015.58 1015.53 1015.45 1015.92 1015.88 1016.25 1016.53 1016.84 1016.59 1016.17 1016.50 1016.67 1017.06 1017.29 1017.70 1017.77 1017.75 1017.95 1017.51 1017.49 1017.89 1017.69 1017.05 1017.15 1017.80 1017.91 1018.02 1018.49 1019.13 1020.08 1020.56 1020.85 1020.96
1011.74 1012.82 1013.51 1014.00 1014.34 1014.81 1015.42 1015.62 1015.26 1015.04 1015.12 1015.26 1015.41 1015.46 1015.91 1016.25 1016.30 1016.67 1016.33 1016.26 1016.44 1016.10 1016.44 1017.12 1017.64 1017.75 1017.68 1017.20 1017.12 1017.16 1017.77 1017.71 1017.12 1017.65 1017.35 1017.69 1017.93 1018.43 1019.08 1019.62 1020.02 1020.30 1020.57
1011.65 1012.61 1013.42 1013.89 1014.48 1014.93 1015.08 1015.27 1014.99 1014.83 1014.83 1015.07 1015.16 1015.61 1016.19 1015.97 1016.28 1016.72 1015.97 1016.06 1016.30 1016.41 1017.10 1017.31 1017.37 1017.34 1017.15 1016.87 1017.44 1017.30 1017.55 1017.36 1017.63 1017.53 1017.25 1017.70 1018.21 1018.71 1018.76 1018.73 1019.23 1019.64 1020.02
1011.26 1012.21 1013.16 1013.74 1014.42 1014.96 1014.95 1014.85 1014.58 1014.63 1014.52 1014.72 1014.92 1015.43 1016.11 1016.21 1016.26 1016.58 1016.61 1016.33 1016.60 1016.69 1017.42 1017.52 1017.67 1017.60 1017.32 1017.24 1017.69 1017.79 1017.40 1017.77 1017.49 1017.69 1017.52 1017.79 1017.71 1018.29 1017.71 1018.30 1018.43 1019.14 1019.54
1010.69 1011.75 1012.61 1013.47 1014.07 1014.70 1014.61 1014.88 1015.02 1015.14 1015.26 1015.12 1015.45 1015.62 1015.63 1016.04 1016.18 1016.27 1016.52 1016.61 1016.73 1016.72 1017.15 1017.52 1017.53 1017.67 1017.59 1017.36 1017.27 1017.62 1017.29 1017.35 1017.63 1017.84 1017.89 1017.90 1017.55 1017.92 1017.75 1018.47 1018.67 1019.04 1019.35
1009.89 1011.08 1011.98 1013.02 1013.61 1014.27 1014.69 1014.37 1014.76 1014.82 1014.75 1014.72 1014.95 1014.85 1015.25 1016.06 1016.14 1016.25 1016.52 1016.43 1016.81 1016.32 1016.96 1017.29 1017.40 1017.48 1017.48 1017.07 1016.36 1016.48 1016.78 1016.79 1017.14 1017.49 1017.66 1017.83 1017.54 1017.76 1017.79 1018.15 1018.74 1019.03 1019.62
1009.15 1010.13 1011.16 1012.31 1013.13 1013.64 1014.24 1014.49 1014.55 1014.97 1014.39 1014.58 1014.58 1015.31 1015.71 1015.98 1016.27 1016.18 1016.50 1016.53 1016.74 1016.57 1016.98 1017.11 1017.21 1017.27 1016.83 1016.72 1015.91 1016.01 1016.54 1016.17 1016.23 1016.36 1017.29 1017.76 1017.92 1018.20 1018.44 1018.36 1019.02 1019.49 1019.63
1008.46 1009.47 1010.31 1011.60 1012.63 1013.41 1013.87 1014.39 1014.54 1014.47 1014.64 1014.34 1014.55 1014.81 1014.79 1015.01 1015.99 1016.34 1016.12 1016.51 1016.57 1016.42 1016.82 1016.94 1017.22 1017.33 1017.40 1017.40 1017.08 1016.52 1015.92 1015.85 1015.75 1015.96 1016.35 1017.03 1017.94 1018.61 1018.87 1018.99 1019.17 1019.46 1019.50
Wind_Speed
3 3 6 10 14 16 16 15 14 13 13 12 13 14 16 14 14 16 17 15 15 15 14 15 14 15 14 12 16 15 14 14 14 14 15 15 13 11 9 8 17 16 13
4 6 7 12 14 15 15 15 14 14 11 11 13 13 14 15 14 15 14 14 14 15 16 16 16 15 15 14 14 15 11 11 12 14 16 16 12 11 13 13 17 13 12
10 10 12 12 15 15 15 15 14 13 12 10 13 13 13 14 14 13 13 15 14 14 15 15 14 15 13 13 13 13 12 9 8 10 14 10 13 11 11 14 15 12 12
15 12 14 12 15 16 14 14 13 13 12 11 11 13 12 13 13 12 13 13 13 13 12 13 13 11 12 12 12 11 10 3 2 7 4 2 15 10 13 13 12 13 12
16 14 14 13 15 15 13 13 12 12 11 10 11 11 11 11 12 11 11 11 11 12 11 11 11 11 11 12 10 9 7 1 7 8 4 5 8 11 12 11 12 10 10
14 20 14 14 15 13 12 11 11 10 10 10 9 10 10 10 11 11 11 11 11 10 10 9 9 9 9 10 9 6 3 4 9 3 4 19 10 14 9 6 10 11 11
16 16 16 12 12 11 12 11 10 10 9 9 8 8 8 9 9 8 8 9 10 8 8 7 8 8 7 8 8 7 1 4 3 4 5 5 13 12 9 8 8 8 8
17 14 15 12 11 11 11 10 10 9 8 9 7 7 7 7 7 6 6 7 7 6 6 5 6 6 5 5 5 5 2 6 4 4 10 9 11 9 8 7 8 7 7
16 14 14 14 12 10 9 10 10 8 7 7 7 6 6 5 4 4 4 5 4 4 3 3 3 3 4 3 3 2 2 3 4 4 6 6 9 7 5 5 5 6 7
17 14 9 16 13 10 11 9 8 8 7 6 5 4 5 6 7 7 6 7 5 3 3 3 3 4 4 4 4 3 7 9 7 12 8 9 11 9 8 3 2 5 6
17 18 15 10 14 11 11 10 9 8 7 6 8 8 9 4 7 10 8 8 5 4 5 5 6 4 8 9 8 8 9 6 8 4 8 17 11 5 7 9 7 2 3
16 15 14 14 11 13 11 12 8 10 10 9 7 9 9 10 7 5 6 7 7 6 8 9 8 9 11 6 8 10 5 3 3 5 8 19 12 7 2 2 4 7 3
15 11 12 11 10 10 8 7 6 8 5 6 3 5 1 1 2 2 3 4 5 10 2 9 8 6 7 4 6 3 3 8 3 3 12 20 18 10 10 12 7 4 5
14 14 14 13 7 9 7 8 5 5 4 4 7 6 3 1 4 4 2 6 7 2 5 2 3 3 4 5 6 11 3 2 5 5 8 19 20 19 16 13 13 11 5
15 14 15 14 8 6 3 5 2 2 5 5 6 8 1 4 6 3 2 4 4 6 2 2 4 4 3 1 4 3 5 1 10 4 4 18 19 18 17 17 16 13 12
13 13 13 13 11 8 7 2 2 5 4 5 2 5 5 4 2 3 3 5 2 4 3 2 2 2 3 1 4 5 4 3 5 7 7 9 17 17 19 16 14 12 14
12 13 13 11 13 10 8 7 6 6 6 5 3 5 4 5 1 1 4 6 3 6 3 1 5 4 5 5 5 5 3 8 7 6 6 4 9 17 18 17 13 14 15
13 13 12 11 14 12 10 8 8 6 5 3 6 4 7 5 5 6 3 3 6 4 1 3 4 2 4 4 7 3 3 7 7 10 8 9 9 9 13 18 15 13 16
12 13 11 10 10 13 9 8 7 5 4 4 3 3 5 3 4 5 5 3 5 3 2 1 2 4 6 6 6 7 3 6 4 3 9 9 6 9 10 17 17 14 12
12 12 11 11 9 10 9 6 7 6 7 4 4 3 5 2 1 3 3 3 6 4 3 5 4 5 4 5 7 7 3 2 5 4 1 6 5 4 5 8 11 10 15
14 13 12 11 10 8 7 8 7 7 5 4 4 3 2 4 1 3 5 2 5 5 6 2 1 0 2 2 5 1 3 8 4 4 4 6 3 4 8 9 5 4 6
15 14 13 12 12 10 8 7 6 4 4 4 4 4 1 3 3 5 4 2 3 6 5 1 1 2 3 5 1 1 3 4 3 3 4 6 6 5 6 5 7 10 8
17 15 14 13 13 12 10 7 4 4 3 3 4 5 6 4 3 2 2 4 1 4 3 2 2 3 3 4 5 2 1 1 6 2 3 2 5 6 6 7 5 6 6
16 16 15 14 14 13 12 8 7 6 6 7 5 5 3 1 3 2 3 2 1 4 4 5 4 2 2 3 0 1 2 1 3 3 3 2 2 5 6 4 4 7 6
17 16 15 14 13 12 13 11 8 8 6 4 5 6 2 4 4 3 3 2 3 6 4 2 2 2 3 3 2 1 3 2 2 1 4 5 1 4 6 2 6 3 5
16 15 15 14 12 13 12 13 10 7 8 5 6 4 6 6 7 5 4 2 2 1 3 3 2 1 5 6 8 6 4 5 2 3 5 7 6 2 2 3 4 3 5
Wind_Direction
262 196 119 108 115 117 119 119 115 107 102 102 95 93 93 95 94 97 101 105 102 105 99 98 90 90 93 92 94 96 97 96 95 97 95 93 90 89 83 108 125 105 106
165 130 131 110 117 115 112 114 110 107 102 97 97 98 97 104 104 104 111 104 99 95 93 92 86 85 82 72 81 90 93 93 110 116 115 100 91 82 64 82 76 101 108
178 166 131 113 119 117 114 111 110 113 106 101 100 96 100 107 105 108 107 99 93 92 92 96 91 81 76 77 83 83 92 111 138 150 163 122 92 87 83 84 93 108 109
160 149 132 128 123 121 118 114 121 116 114 109 103 100 101 108 109 110 107 98 93 90 89 93 97 88 75 80 82 83 82 102 186 198 231 93 103 100 98 102 104 103 104
149 134 120 125 119 119 123 128 124 120 116 113 104 106 106 105 112 115 109 98 92 97 90 88 84 85 85 80 87 82 83 160 248 278 105 66 105 115 115 112 123 125 105
147 125 129 129 123 123 128 127 126 124 122 112 110 107 108 99 105 113 104 105 104 91 90 87 88 87 86 86 84 92 102 266 296 39 63 64 65 112 116 107 93 106 108
120 117 132 123 125 132 126 132 133 128 128 119 119 110 104 102 107 103 108 115 108 104 106 103 100 92 86 79 80 79 113 286 340 75 96 102 96 103 115 114 111 120 118
123 143 132 131 141 142 140 137 131 130 124 123 112 109 111 105 105 110 110 106 105 109 105 105 110 107 97 81 78 64 67 290 175 69 73 57 86 103 109 115 122 130 128
133 128 145 149 136 135 138 144 139 129 127 122 122 116 112 120 114 137 129 121 116 114 128 136 130 132 136 124 104 93 283 310 119 107 63 107 88 80 100 111 126 130 132
142 149 179 148 162 159 154 146 148 144 152 142 149 150 180 174 194 192 192 170 157 169 181 194 192 187 178 184 180 191 246 256 231 132 143 104 76 60 46 57 107 126 137
149 169 162 182 161 156 149 154 167 168 168 173 187 203 221 226 203 162 119 141 176 220 207 208 205 209 210 207 190 196 241 262 165 77 111 112 122 88 53 43 30 44 145
166 161 157 163 169 155 172 144 187 177 185 202 191 192 214 226 196 118 127 174 193 224 235 222 214 224 234 214 180 206 212 51 61 184 102 117 141 145 266 340 8 14 15
166 162 163 166 170 157 122 158 172 201 195 162 197 238 76 115 18 242 192 182 181 204 224 228 203 241 304 239 195 225 190 146 113 11 129 136 154 171 206 246 245 275 344
166 164 174 155 199 158 171 196 187 199 158 138 174 204 260 206 263 206 183 174 214 152 179 174 338 126 281 3 354 346 270 7 57 58 126 152 165 184 203 223 241 241 255
168 171 172 147 177 164 223 191 198 169 215 150 172 188 271 179 237 126 260 291 290 194 176 188 254 147 109 30 249 322 308 334 143 160 168 173 180 190 196 213 224 233 232
171 168 163 153 163 187 203 189 188 218 209 127 221 136 201 244 249 132 294 268 5 73 345 226 205 19 38 284 263 209 192 265 145 181 174 180 189 190 192 207 222 216 220
175 160 155 175 164 179 185 177 223 197 188 192 157 155 222 284 194 238 277 287 89 91 101 103 222 148 199 204 232 199 224 184 206 186 162 188 180 193 192 202 205 212 215
178 158 164 187 166 175 179 180 210 219 166 150 199 165 186 231 278 287 276 258 33 336 178 194 200 174 252 186 206 137 231 208 205 196 163 177 177 183 197 198 201 206 218
173 160 183 184 185 159 165 183 234 170 241 223 212 213 178 221 263 263 301 4 10 289 148 202 160 213 176 204 216 196 194 298 219 196 178 154 180 165 174 191 200 214 222
156 163 184 175 179 164 161 215 214 209 224 212 227 212 64 313 222 272 250 6 308 290 55 96 166 197 203 222 220 117 180 208 258 34 81 123 185 137 102 164 194 207 216
161 165 177 183 170 185 190 198 217 219 202 219 239 82 316 286 45 267 300 96 270 39 36 27 111 223 301 124 46 146 146 177 165 219 89 91 173 135 180 176 173 181 181
172 174 176 189 176 200 196 220 227 231 225 202 210 123 243 300 282 207 279 31 39 97 122 328 354 293 280 81 115 151 131 74 120 60 155 145 138 174 155 113 92 144 147
172 183 182 190 184 198 233 202 205 287 292 210 225 218 201 216 260 241 230 354 97 283 132 126 1 37 346 283 141 150 186 64 155 149 106 244 173 160 130 97 95 118 143
182 184 187 189 199 197 208 214 213 221 224 208 219 180 136 212 244 188 203 125 285 341 57 189 155 217 163 311 213 67 359 27 75 161 136 57 172 165 126 112 148 113 124
182 187 184 188 196 214 193 239 192 230 213 217 219 121 269 144 234 211 162 162 153 244 110 4 357 23 275 310 335 143 52 318 343 112 163 150 141 48 36 348 84 56 127
186 192 182 181 197 201 204 203 229 205 255 221 207 166 224 171 158 204 185 179 164 305 176 201 55 146 10 1 338 343 321 356 41 288 125 157 117 95 139 140 123 143 83